Flag for U.S.A. Weather past 2 weeks in Augusta, Georgia, U.S.A.

76 °F

Scattered clouds.

Feels Like: 78 °F
Forecast: 62 / 71 °F
Wind: 10 mph from North

Location: Daniel Field

Current Time: Oct 10, 2015 at 4:17:51 PM

Latest Report: Oct 10, 2015 at 3:53 PM

Visibility: 10 mi

Pressure: 29.89 "Hg

Humidity: 64%

Dew point: 63 °F

Location of AugustaLocation

Historic Weather in Augusta — Graph


Augusta temperature yesterday

Maximum temperature yesterday: 84 °F (at 2:53 PM)
Minimum temperature yesterday: 67 °F (at 2:53 AM)
Average temperature yesterday: 73 °F

Past Weeks' High & Low Weather Summary

High86 °F (Sep 30, 2:53 PM)97% (Oct 9, 6:53 AM)30.17 "Hg (Oct 9, 6:53 AM)
Low56 °F (Oct 3, 3:53 AM)41% (Oct 7, 2:53 PM)29.58 "Hg (Oct 4, 2:53 AM)
Average71 °F81%29.92 "Hg
* Reported Sep 25 2:53 PM — Oct 10 2:53 PM, Augusta, Weather by CustomWeather, © 2015

Note: Actual official high and low records may vary slightly from our data, if they occured in-between our weather recording intervals... More about our weather records


Augusta weather history for previous 24 hours

Time TempWeatherWind HumidityBarometerVisibility
2:53 PM
Sat, Oct 10
75 °FPartly sunny.7 mph64%29.90 "Hg10 mi
1:53 PM73 °FBroken clouds.5 mph74%29.92 "Hg10 mi
1:00 PM72 °FMostly cloudy.5 mph76%29.96 "Hg10 mi
11:53 AM70 °FScattered clouds.3 mph84%29.95 "Hg10 mi
10:53 AM67 °FLight rain. Low clouds.10 mph93%29.95 "Hg10 mi
9:53 AM67 °FRain. Fog.7 mph93%29.97 "Hg3 mi
9:02 AM67 °FThundershowers. Fog.3 mph93%29.99 "Hg6 mi
8:53 AM67 °FThundershowers. Fog.5 mph93%29.97 "Hg4 mi
7:53 AM68 °FStrong thunderstorms. Fog.7 mph90%29.96 "Hg5 mi
7:01 AM71 °FThundershowers. Passing clouds.3 mph84%29.96 "Hg10 mi
5:53 AM71 °FPartly cloudy.5 mph87%29.93 "Hg10 mi
4:53 AM72 °FPassing clouds.5 mph87%29.94 "Hg10 mi
3:53 AM72 °FClear.No wind84%29.96 "Hg10 mi
2:53 AM71 °FClear.3 mph87%29.98 "Hg10 mi
1:53 AM72 °FPassing clouds.3 mph84%29.99 "Hg10 mi
12:53 AM72 °FPassing clouds.No wind81%30.01 "Hg10 mi
11:53 PM
Fri, Oct 9
72 °FClear.3 mph81%30.02 "Hg10 mi
10:53 PM74 °FPassing clouds.No wind74%30.02 "Hg10 mi
9:53 PM74 °FClear.No wind71%30.01 "Hg10 mi
8:53 PM75 °FClear.No wind71%30.01 "Hg10 mi
7:53 PM76 °FSunny.No wind69%30.00 "Hg10 mi
6:53 PM79 °FSunny.3 mph62%30.00 "Hg10 mi
5:53 PM82 °FSunny.3 mph55%30.01 "Hg10 mi
4:53 PM82 °FScattered clouds.7 mph56%30.01 "Hg10 mi
Weather by CustomWeather, © 2015

See weather overviewHow to use our weather pages